Date,TemperatureHighF,TemperatureAvgF,TemperatureLowF,DewpointHighF,DewpointAvgF,DewpointLowF,HumidityHigh,HumidityAvg,HumidityLow,PressureMaxIn,PressureMinIn,WindSpeedMaxMPH,WindSpeedAvgMPH,GustSpeedMaxMPH,PrecipitationSumIn
2012-12-1,54,50,47,47,44,40,94,79,65,29.95,29.58,10,2,10,0.22
2012-12-2,48,46,45,45,43,42,94,89,81,30.10,29.48,13,2,13,0.76
2012-12-3,49,47,45,45,44,43,93,90,85,30.32,29.95,11,2,11,0.45
2012-12-4,53,50,46,50,46,42,94,88,79,30.14,29.84,11,2,11,0.46
2012-12-5,49,45,42,42,39,38,85,81,71,30.50,30.14,10,2,10,0.02
2012-12-6,46,44,42,42,40,38,90,86,80,30.48,30.34,10,2,10,0.08
2012-12-7,46,44,41,43,39,34,89,85,68,30.45,30.25,10,1,10,0.07
2012-12-8,42,40,38,38,36,35,91,87,84,30.65,30.44,4,0,4,0.04
2012-12-9,43,40,38,41,38,35,93,91,88,30.68,30.58,3,0,3,0.29
2012-12-10,44,43,42,43,41,40,95,94,93,30.72,30.43,3,0,3,0.00
2012-12-11,46,44,43,42,41,41,93,91,88,30.40,29.87,4,1,4,0.29
2012-12-12,44,42,41,42,40,39,94,93,93,30.33,29.92,1,0,1,0.23
2012-12-13,44,41,39,40,39,37,94,91,82,30.34,30.12,2,0,2,0.01
2012-12-14,42,39,35,40,37,33,94,93,91,30.25,30.08,2,0,2,0.01
2012-12-15,41,38,34,38,34,32,93,89,79,30.23,29.86,6,1,6,0.02
2012-12-16,44,41,39,42,38,36,95,92,86,30.03,29.29,10,2,10,0.37
2012-12-17,45,43,37,44,40,33,94,87,77,30.18,29.24,14,3,14,0.11
2012-12-18,40,38,36,35,33,32,91,84,77,30.29,30.18,9,2,9,0.03
2012-12-19,42,39,36,40,36,30,94,88,68,30.26,29.87,8,1,8,0.79
2012-12-20,42,41,36,41,38,33,93,91,89,30.13,29.82,8,1,8,0.85
2012-12-21,46,38,32,42,35,29,93,90,83,30.13,29.98,3,0,3,0.03
2012-12-22,47,43,38,44,39,36,93,86,74,30.05,29.80,10,1,10,0.10
2012-12-23,46,43,40,40,38,36,90,83,77,30.06,29.92,4,0,4,0.23
2012-12-24,44,42,39,41,39,37,92,90,88,30.47,30.35,6,0,6,0.02
2012-12-25,44,41,38,37,36,33,92,81,65,30.35,29.96,14,2,14,0.47
2012-12-26,45,43,40,42,39,34,91,86,71,30.22,30.00,6,1,6,0.30
2012-12-27,44,42,40,42,40,38,93,92,90,30.47,30.22,4,0,4,0.23
2012-12-28,48,42,38,42,38,34,93,86,71,30.47,30.41,5,0,5,0.00
2012-12-29,41,39,38,38,36,33,93,86,79,30.54,30.45,2,0,2,0.12
2012-12-30,40,37,33,38,35,31,93,92,90,30.62,30.53,3,0,3,0.00
2012-12-31,39,35,33,36,33,30,93,91,87,30.76,30.55,2,0,2,0.00